Weather History for KOPM - March, 2014

Change the Weather History Date:

Saturday, March 29, 2014

  Actual Average Record
Temperature  
Mean Temperature 66 °F -  
Max Temperature 68 °F - - ()
Min Temperature 64 °F - - ()
Cooling Degree Days 1    
Growing Degree Days 16 (Base 50)    
Moisture  
Dew Point 62 °F    
Average Humidity 88    
Maximum Humidity 100    
Minimum Humidity 78    
Precipitation  
Precipitation 0.00 in - - ()
Sea Level Pressure  
Sea Level Pressure 30.08 in    
Wind  
Wind Speed 10 mph (North)    
Max Wind Speed 17 mph    
Max Gust Speed 22 mph    
Visibility 8 miles    
Events      
Averages and records for this station are not official NWS values.
T = Trace of Precipitation, MM = Missing Value Source: NWS Daily Summary

Daily Weather History Graph

Daily Weather History Graph

Search for Another Location

Airport or City:

Trip Planner

Search our weather history database for the weather conditions in past years. The results will help you decide how hot, cold, wet, or windy it might be!

Date:

Astronomy

Mar. 29, 2014 Rise Set
Actual Time 7:21 AM CDT 7:43 PM CDT
Civil Twilight 6:58 AM CDT 8:06 PM CDT
Nautical Twilight 6:31 AM CDT 8:34 PM CDT
Astronomical Twilight 6:03 AM CDT 9:01 PM CDT
Moon 6:25 AM CDT (3/29) 6:53 PM CDT (3/29)
Length of Visible Light 13h 08m
Length of Day
12h 21m
Waning Crescent, 2% of the Moon is Illuminated
Mar 29
Waning Crescent
Mar 30
New
Apr 7
First Quarter
Apr 15
Full
Apr 22
Last Quarter

Hourly Weather History & Observations

Time (CDT) Temp. Dew Point Humidity Pressure Visibility Wind Dir Wind Speed Gust Speed Precip Events Conditions
12:15 AM 66.2 °F 66.2 °F 100% 29.87 in 5.0 mi South 10.4 mph - N/A   Clear
12:35 AM 66.2 °F 66.2 °F 100% 29.88 in 5.0 mi South 11.5 mph - N/A   Clear
12:55 AM 66.2 °F 66.2 °F 100% 29.89 in 6.0 mi SSW 11.5 mph - N/A   Clear
1:15 AM 66.2 °F 66.2 °F 100% 29.90 in 6.0 mi SSW 10.4 mph - N/A   Clear
1:35 AM 66.2 °F 66.2 °F 100% 29.91 in 7.0 mi SW 10.4 mph - N/A   Clear
1:55 AM 66.2 °F 66.2 °F 100% 29.93 in 7.0 mi Variable 3.5 mph - N/A   Clear
2:15 AM 66.2 °F 66.2 °F 100% 29.93 in 7.0 mi WNW 3.5 mph - N/A   Clear
2:35 AM 64.4 °F 64.4 °F 100% 29.93 in 6.0 mi Calm Calm - N/A   Clear
2:55 AM 64.4 °F 64.4 °F 100% 29.93 in 6.0 mi Calm Calm - N/A   Clear
3:15 AM 66.2 °F 66.2 °F 100% 29.93 in 7.0 mi Calm Calm - N/A   Clear
3:35 AM 66.2 °F 66.2 °F 100% 29.94 in 7.0 mi Calm Calm - N/A   Clear
3:55 AM 66.2 °F 66.2 °F 100% 29.94 in 8.0 mi Calm Calm - N/A   Clear
4:15 AM 66.2 °F 66.2 °F 100% 29.95 in 7.0 mi NNW 4.6 mph - N/A   Clear
4:35 AM 66.2 °F 66.2 °F 100% 29.96 in 7.0 mi NNW 6.9 mph - N/A   Clear
4:55 AM 66.2 °F 66.2 °F 100% 29.97 in 7.0 mi NW 12.7 mph - N/A   Clear
5:15 AM 66.2 °F 66.2 °F 100% 29.98 in 9.0 mi NNW 10.4 mph - N/A   Clear
5:35 AM 66.2 °F 66.2 °F 100% 29.99 in 9.0 mi NNW 8.1 mph - N/A   Clear
5:55 AM 66.2 °F 64.4 °F 94% 30.00 in 10.0 mi North 9.2 mph 16.1 mph N/A   Clear
6:15 AM 66.2 °F 64.4 °F 94% 30.01 in 7.0 mi North 12.7 mph - N/A   Clear
6:35 AM 64.4 °F 64.4 °F 100% 30.02 in 7.0 mi North 12.7 mph 19.6 mph N/A   Clear
6:55 AM 66.2 °F 64.4 °F 94% 30.03 in 6.0 mi North 12.7 mph - N/A   Clear
7:15 AM 66.2 °F 64.4 °F 94% 30.04 in 8.0 mi North 15.0 mph - N/A   Clear
7:35 AM 66.2 °F 60.8 °F 83% 30.05 in 9.0 mi North 13.8 mph - N/A   Clear
7:55 AM 66.2 °F 60.8 °F 83% 30.06 in 8.0 mi North 13.8 mph - N/A   Clear
8:15 AM 66.2 °F 60.8 °F 83% 30.06 in 8.0 mi North 12.7 mph 19.6 mph N/A   Clear
8:35 AM 66.2 °F 60.8 °F 83% 30.08 in 8.0 mi North 12.7 mph - N/A   Clear
8:55 AM 66.2 °F 59.0 °F 78% 30.09 in 9.0 mi North 15.0 mph 20.7 mph N/A   Clear
9:15 AM 66.2 °F 60.8 °F 83% 30.10 in 8.0 mi North 13.8 mph 19.6 mph N/A   Clear
9:35 AM 66.2 °F 60.8 °F 83% 30.11 in 7.0 mi North 13.8 mph - N/A   Clear
9:55 AM 64.4 °F 59.0 °F 83% 30.12 in 8.0 mi North 12.7 mph 19.6 mph N/A   Clear
10:15 AM 64.4 °F 59.0 °F 83% 30.13 in 7.0 mi North 12.7 mph 21.9 mph N/A   Clear
10:30 AM 64.4 °F 59.0 °F 83% 30.14 in 7.0 mi North 16.1 mph - N/A   Clear
10:45 AM 64.4 °F 59.0 °F 83% 30.15 in 7.0 mi North 16.1 mph - N/A   Clear
11:20 AM 64.4 °F 59.0 °F 83% 30.16 in 8.0 mi North 11.5 mph 18.4 mph N/A   Clear
12:15 PM 64.4 °F 59.0 °F 83% 30.17 in 8.0 mi North 11.5 mph - N/A   Clear
12:30 PM 64.4 °F 59.0 °F 83% 30.17 in 7.0 mi North 12.7 mph - N/A   Clear
12:45 PM 64.4 °F 59.0 °F 83% 30.17 in 7.0 mi North 10.4 mph 17.3 mph N/A   Clear
1:15 PM 64.4 °F 59.0 °F 83% 30.17 in 7.0 mi North 12.7 mph - N/A   Clear
1:20 PM 64.4 °F 59.0 °F 83% 30.16 in 7.0 mi North 11.5 mph 17.3 mph N/A   Clear
1:55 PM 64.4 °F 59.0 °F 83% 30.16 in 7.0 mi North 12.7 mph - N/A   Clear
2:10 PM 64.4 °F 59.0 °F 83% 30.16 in 8.0 mi North 11.5 mph - N/A   Clear
2:35 PM 64.4 °F 59.0 °F 83% 30.15 in 8.0 mi North 11.5 mph - N/A   Clear
2:55 PM 64.4 °F 59.0 °F 83% 30.14 in 8.0 mi North 11.5 mph 17.3 mph N/A   Clear
3:15 PM 64.4 °F 59.0 °F 83% 30.14 in 9.0 mi North 9.2 mph 15.0 mph N/A   Clear
3:35 PM 64.4 °F 59.0 °F 83% 30.13 in 9.0 mi North 8.1 mph 13.8 mph N/A   Clear
3:55 PM 64.4 °F 59.0 °F 83% 30.12 in 8.0 mi North 10.4 mph - N/A   Clear
4:15 PM 64.4 °F 59.0 °F 83% 30.13 in 9.0 mi NNE 8.1 mph - N/A   Clear
4:35 PM 64.4 °F 59.0 °F 83% 30.12 in 9.0 mi North 6.9 mph - N/A   Clear
4:50 PM 64.4 °F 59.0 °F 83% 30.12 in 9.0 mi NNE 8.1 mph - N/A   Clear
5:10 PM 64.4 °F 59.0 °F 83% 30.12 in 9.0 mi NNE 8.1 mph 13.8 mph N/A   Clear
5:35 PM 64.4 °F 59.0 °F 83% 30.12 in 9.0 mi NNE 8.1 mph 16.1 mph N/A   Clear
5:55 PM 66.2 °F 60.8 °F 83% 30.12 in 8.0 mi NNE 9.2 mph - N/A   Clear
6:15 PM 66.2 °F 60.8 °F 83% 30.12 in 9.0 mi NNE 9.2 mph 15.0 mph N/A   Clear
6:35 PM 66.2 °F 60.8 °F 83% 30.13 in 9.0 mi NNE 8.1 mph - N/A   Clear
6:55 PM 66.2 °F 60.8 °F 83% 30.12 in 8.0 mi NNE 10.4 mph - N/A   Clear
7:10 PM 66.2 °F 60.8 °F 83% 30.12 in 9.0 mi NNE 9.2 mph 16.1 mph N/A   Clear
7:35 PM 66.2 °F 60.8 °F 83% 30.13 in 9.0 mi NNE 9.2 mph 17.3 mph N/A   Clear
7:55 PM 66.2 °F 60.8 °F 83% 30.13 in 9.0 mi NNE 10.4 mph 18.4 mph N/A   Clear
8:15 PM 66.2 °F 60.8 °F 83% 30.14 in 10.0 mi NNE 15.0 mph - N/A   Clear
8:35 PM 66.2 °F 60.8 °F 83% 30.13 in 10.0 mi NE 17.3 mph - N/A   Clear
8:55 PM 66.2 °F 60.8 °F 83% 30.14 in 10.0 mi NE 16.1 mph - N/A   Clear
9:15 PM 66.2 °F 60.8 °F 83% 30.14 in 10.0 mi NE 15.0 mph - N/A   Clear
9:35 PM 66.2 °F 60.8 °F 83% 30.15 in 10.0 mi NE 13.8 mph - N/A   Clear
9:55 PM 66.2 °F 62.6 °F 88% 30.16 in 10.0 mi NE 11.5 mph - N/A   Clear
10:10 PM 66.2 °F 62.6 °F 88% 30.17 in 10.0 mi NE 9.2 mph - N/A   Clear
10:35 PM 66.2 °F 62.6 °F 88% 30.17 in 10.0 mi NE 9.2 mph - N/A   Clear
10:55 PM 68.0 °F 62.6 °F 83% 30.18 in 10.0 mi NE 9.2 mph - N/A   Clear
11:10 PM 68.0 °F 62.6 °F 83% 30.18 in 10.0 mi NE 9.2 mph - N/A   Clear
11:30 PM 68.0 °F 62.6 °F 83% 30.19 in 10.0 mi NE 9.2 mph - N/A   Clear
11:55 PM 66.2 °F 62.6 °F 88% 30.19 in 10.0 mi East 6.9 mph - N/A   Clear